Showing default

GOES 16, 41866

Orbit data source: Space-Track

GOES 16, 41866 is a payload satellite owned by NOAA (US) in GEO that was launched on Sat, 19 Nov 2016 UTC via an ATLAS V 541 launch vehicle from the Air Force Eastern Test Range (AFETR). Payload-class satellites include a variety of spacecraft equipped with specific instruments for various scientific and technological missions. These include communications satellites like Starlink; space stations such as the ISS; scientific satellites like the Hubble; Earth observation satellites from companies like Planet Labs, Umbra, and HawkEye 360; GPS; miniature CubeSats for education and research; and military/defense satellites.

Loading next visibility...
Identifier
41866, 2016-071A
Orbit
GEO
Country
Flag of USUS
Related business
Manufacturer
LMCSS
Mission
Operational Civil Weather
Bus & Motor
A2100, LEROS-1C
Mass
5,192 kg wet, 2,857 kg dry
Launch date (UTC)
2016-11-19 (9 years ago)
Launch vehicle
ATLAS V 541
Launch site
Air Force Eastern Test Range (AFETR)
Object type
Payload
Rocket body
Debris
Shape & HBR
Box + 1 Pan + 1 Rod, 20.0 m
Radar Cross Section
37.561 m², Large (>1 m²)

Expand to show TLE details & history
Last TLE update: 8 hours ago

TLE from 8 hours ago
0 GOES 16
1 41866U 16071A   26037.67650306 -.00000089  00000-0  00000+0 0  9998
2 41866   0.1492  94.1310 0002834 199.6088 341.8809  1.00271878 33798
Epoch: 2026-02-06T16:14Z
TLE epoch observation values (Epoch: 2026-02-06T16:14:09.864Z)
Latitude
-0.00178°
Longitude
-104.71059°
Altitude
35,774.682 km
Speed
3.076 km/s
True Right ascension
18h 22m 33s
True Declination
0° 00' 06"
Sunlit
Object was in daylight at epoch
Visualization orbit readout
Latitude
Unknown
Longitude
Unknown
Altitude
Unknown
Speed
Unknown
Apparent Right ascension
Unknown
Apparent Declination
Unknown
Sunlit
N/A
Visualization observer readout
Local Sidereal Time
02:42:23
Azimuth
Unknown
Elevation
Unknown
Doppler factor
Unknown
Orbital elements
Apogee altitude
35,799.589 km
Perigee altitude
35,775.689 km
Semi-major axis
42,165.776 km
Eccentricity
0.00028
Inclination
0.1492°
RAAN
94.131°
Arg. of periapsis
199.6088°
True anomaly
341.8708°
Mean anomaly
341.8809°
Eccentric anomaly
341.87585°
Mean motion
0.25067 °/min
Orbital period
1,436.15 mins
BSTAR
0
Loading maneuver chart data...
Computing Atmospheric mass density...
Loading historical data...
Loading historical data...
Loading historical data...
Loading historical data...
Loading historical data...
Loading historical data...
Loading historical data...
Other satellites on launch #71 in the year 2016 (2016-11-19 UTC)

Documentation

Showing up to 5 results
|